Home > Weather > Alice Springs > Past weeks

Flag for Australia Past Weather in Alice Springs, Northern Territory, Australia — Yesterday and Last 2 Weeks

Now
61 °F

Sunny.


Feels Like: 61 °F
Forecast: 44 / 64 °F
Wind: 9 mph from East

Location: Alice Springs Aerodrome

Current Time: Jul 25, 2016 at 3:45:28 PM

Latest Report: Jul 25, 2016 at 3:00 PM


Visibility: 10 mi

Pressure: 30.15 "Hg (28.15 "Hg at 581m altitude)

Humidity: 29%

Dew Point: 28 °F

Location of Alice SpringsLocation

Past Weather in Alice Springs — Graph

°F

Alice Springs Temperature Yesterday

Maximum temperature yesterday: 68 °F (at 12:00 PM)
Minimum temperature yesterday: 46 °F (at 4:30 AM)
Average temperature yesterday: 57 °F

High & Low Weather Summary for the Past Weeks

 TemperatureHumidityPressure
High86 °F (Jul 22, 3:00 PM)100% (Jul 20, 3:00 AM)30.45 "Hg (Jul 20, 3:00 AM)
Low27 °F (Jul 14, 7:30 AM)13% (Jul 16, 4:00 PM)29.89 "Hg (Jul 10, 2:30 PM)
Average54 °F52%30.16 "Hg
* Reported Jul 10 2:30 PM — Jul 25 2:30 PM, Alice Springs, Weather by CustomWeather, © 2016

Note: Actual official high and low records may vary slightly from our data, if they occured in-between our weather recording intervals... More about our weather records

Advertising

Alice Springs Weather History for the Previous 24 Hours

Scroll right to see more
 ConditionsComfort  
Time TempWeatherWind HumidityBarometerVisibility
2:30 PM
Mon, Jul 25
61 °FSunny.10 mph29%30.15 "Hg10 mi
2:00 PM61 °FSunny.12 mph29%30.18 "Hg10 mi
1:30 PM61 °FSunny.9 mph31%30.18 "Hg10 mi
1:00 PM61 °FSunny.10 mph31%30.21 "Hg10 mi
12:30 PM61 °FSunny.12 mph31%30.24 "Hg10 mi
12:00 PM61 °FPassing clouds.13 mph31%30.24 "HgN/A
11:30 AM57 °FSunny.13 mph36%30.24 "Hg10 mi
10:30 AM57 °FSunny.18 mph33%30.27 "Hg10 mi
10:00 AM55 °FSunny.16 mph38%30.27 "Hg10 mi
9:30 AM55 °FSunny.18 mph36%30.27 "Hg10 mi
9:00 AM54 °FSunny.12 mph35%30.24 "Hg10 mi
8:30 AM52 °FSunny.10 mph41%30.24 "Hg10 mi
8:00 AM46 °FSunny.3 mph57%30.24 "Hg10 mi
7:30 AM45 °FSunny.6 mph61%30.21 "Hg10 mi
7:00 AM41 °FSunny.No wind76%30.21 "HgN/A
6:30 AM41 °FClear.No wind76%30.21 "HgN/A
6:00 AM41 °FClear.No wind76%30.18 "HgN/A
5:30 AM43 °FClear.No wind71%30.18 "HgN/A
5:00 AM45 °FClear.No wind66%30.18 "HgN/A
4:30 AM43 °FClear.No wind71%30.15 "HgN/A
3:30 AM45 °FClear.5 mph66%30.15 "HgN/A
2:30 AM46 °FClear.5 mph66%30.18 "HgN/A
2:00 AM48 °FClear.6 mph62%30.18 "HgN/A
1:30 AM50 °FClear.5 mph62%30.18 "HgN/A
12:30 AM50 °FClear.6 mph58%30.18 "HgN/A
11:30 PM
Sun, Jul 24
52 °FClear.No wind58%30.21 "HgN/A
10:30 PM54 °FClear.No wind54%30.21 "HgN/A
10:00 PM55 °FClear.No wind47%30.21 "HgN/A
9:30 PM55 °FClear.5 mph55%30.21 "HgN/A
8:30 PM55 °FClear.6 mph51%30.18 "HgN/A
7:30 PM59 °FClear.7 mph39%30.18 "HgN/A
7:00 PM59 °FClear.7 mph39%30.15 "HgN/A
6:30 PM61 °FPassing clouds.9 mph36%30.12 "HgN/A
6:00 PM63 °FOvercast.9 mph34%30.12 "HgN/A
5:30 PM63 °FOvercast.8 mph34%30.12 "HgN/A
4:30 PM64 °FOvercast.10 mph28%30.12 "HgN/A
3:30 PM64 °FOvercast.9 mph28%30.09 "HgN/A
Weather by CustomWeather, © 2016

See weather overviewHow to use our weather pages